User: anonymous   Login
Location: Vancouver
(49.2500°N, 123.1330°W)
Time: 17:22:38
(UTC-07:00)
Language:

Cosmos 1939 Rocket - Orbit

View from above orbital plane
View from above orbital plane
View from above satellite
View from above satellite

Ground track
Ground track

The orbit data is extracted from the following two-line orbital elements,

1 19046U 88032B   15114.44349352  .00003579  00000-0  28007-3 0  9991
2 19046 097.6187 168.0426 0042822 123.3802 237.1532 15.00945183454860
Epoch (UTC): 24 April 2015 10:38:37
Eccentricity: 0.0042822
inclination: 97.6187°
perigee height: 534 km
apogee height: 594 km
right ascension of ascending node: 168.0426°
argument of perigee: 123.3802°
revolutions per day: 15.00945183
mean anomaly at epoch: 237.1532°
orbit number at epoch: 45486

The dashed part of the orbit path shows where the satellite is in the earth's shadow,  

DLR